Weather History for Beach, ND

Change the Weather History Date:

Sunday, May 26, 2013

  Actual Average (KGDV) Record (KGDV)
Temperature  
Mean Temperature 61 °F -  
Max Temperature 71 °F 67 °F 86 °F (1998)
Min Temperature 51 °F 44 °F 37 °F (2008)
Degree Days  
Heating Degree Days 4    
Growing Degree Days 11 (Base 50)    
Moisture  
Dew Point 56 °F    
Average Humidity 81    
Maximum Humidity 100    
Minimum Humidity 57    
Precipitation  
Precipitation 0.12 in - - ()
Sea Level Pressure  
Sea Level Pressure 29.93 in    
Wind  
Wind Speed 9 mph (ESE)    
Max Wind Speed 20 mph    
Max Gust Speed 29 mph    
Visibility 10 miles    
Events Rain , Thunderstorm    
Averages and records for this station are not official NWS values.
T = Trace of Precipitation, MM = Missing Value Source: NWS Daily Summary

Daily Weather History Graph

Daily Weather History Graph

Search for Another Location

Airport:

Trip Planner

Search our weather history database for the weather conditions in past years. The results will help you decide how hot, cold, wet, or windy it might be!

Date:

Astronomy

May. 26, 2013 Rise Set
Actual Time 5:09 AM MDT 8:37 PM MDT
Civil Twilight 4:31 AM MDT 9:15 PM MDT
Nautical Twilight 3:41 AM MDT 10:05 PM MDT
Astronomical Twilight 2:36 AM MDT 11:11 PM MDT
Moon 10:24 PM MDT (5/26) 6:42 AM MDT (5/26)
Length of Visible Light 16h 43m
Length of Day
15h 28m
Waning Gibbous, 96% of the Moon is Illuminated
May 26
Waning Gibbous
May 31
Last Quarter
Jun 8
New
Jun 16
First Quarter
Jun 23
Full

Hourly Weather History & Observations

Time (MDT) Temp. Dew Point Humidity Pressure Visibility Wind Dir Wind Speed Gust Speed Precip Events Conditions
12:15 AM 55.4 °F 55.4 °F 100% 29.94 in 10.0 mi NE 6.9 mph - N/A Thunderstorm Thunderstorm
12:35 AM 55.4 °F 55.4 °F 100% 29.96 in 10.0 mi NE 6.9 mph - N/A Rain Light Rain
12:55 AM 55.4 °F 55.4 °F 100% 29.96 in 10.0 mi ESE 5.8 mph - N/A Rain , Thunderstorm Light Rain
1:15 AM 55.4 °F 55.4 °F 100% 29.98 in 7.0 mi SSE 4.6 mph - N/A Rain , Thunderstorm Light Rain
1:35 AM 55.4 °F 55.4 °F 100% 29.95 in 5.0 mi ENE 5.8 mph - 0.03 in Rain Light Rain
1:55 AM 53.6 °F 53.6 °F 100% 29.94 in 4.0 mi ENE 12.7 mph - 0.09 in Rain Light Rain
2:15 AM 55.4 °F 55.4 °F 100% 29.89 in 8.0 mi East 15.0 mph - N/A Rain Light Rain
2:35 AM 55.4 °F 55.4 °F 100% 29.90 in 10.0 mi ESE 13.8 mph 18.4 mph 0.02 in Rain Light Rain
2:55 AM 55.4 °F 55.4 °F 100% 29.93 in 10.0 mi South 12.7 mph - 0.02 in   Overcast
3:15 AM 55.4 °F 55.4 °F 100% 29.94 in 10.0 mi SSW 8.1 mph - N/A   Overcast
3:35 AM 55.4 °F 55.4 °F 100% 29.94 in 8.0 mi South 8.1 mph - N/A Rain Light Rain
3:55 AM 55.4 °F 55.4 °F 100% 29.94 in 5.0 mi South 6.9 mph - 0.01 in Rain Light Rain
4:15 AM 55.4 °F 55.4 °F 100% 29.95 in 10.0 mi SW 11.5 mph - N/A   Overcast
4:35 AM 53.6 °F 53.6 °F 100% 29.93 in 10.0 mi SSW 6.9 mph - N/A   Overcast
4:55 AM 53.6 °F 53.6 °F 100% 29.92 in 10.0 mi South 4.6 mph - N/A   Overcast
5:15 AM 51.8 °F 51.8 °F 100% 29.91 in 10.0 mi SE 6.9 mph - N/A   Scattered Clouds
5:35 AM 51.8 °F 51.8 °F 100% 29.92 in 10.0 mi SE 9.2 mph - N/A   Partly Cloudy
5:55 AM 51.8 °F 51.8 °F 100% 29.92 in 10.0 mi SSE 8.1 mph - N/A   Clear
6:15 AM 53.6 °F 53.6 °F 100% 29.92 in 10.0 mi South 11.5 mph - N/A   Clear
6:35 AM 53.6 °F 53.6 °F 100% 29.91 in 10.0 mi South 13.8 mph - N/A   Clear
6:55 AM 55.4 °F 55.4 °F 100% 29.92 in 10.0 mi South 10.4 mph - N/A   Clear
7:15 AM 57.2 °F 55.4 °F 94% 29.93 in 10.0 mi South 9.2 mph - N/A   Clear
7:35 AM 59.0 °F 55.4 °F 88% 29.94 in 10.0 mi SSW 10.4 mph - N/A   Clear
7:55 AM 59.0 °F 55.4 °F 88% 29.95 in 10.0 mi South 9.2 mph - N/A   Clear
8:15 AM 60.8 °F 55.4 °F 82% 29.97 in 10.0 mi SSW 9.2 mph - N/A   Clear
8:35 AM 62.6 °F 55.4 °F 77% 29.98 in 10.0 mi WSW 4.6 mph - N/A   Clear
8:55 AM 62.6 °F 53.6 °F 72% 29.99 in 10.0 mi Calm Calm - N/A   Clear
9:15 AM 64.4 °F 53.6 °F 68% 29.99 in 10.0 mi NW 3.5 mph - N/A   Clear
9:35 AM 64.4 °F 55.4 °F 73% 29.98 in 10.0 mi North 5.8 mph - N/A   Clear
9:55 AM 64.4 °F 55.4 °F 73% 29.98 in 10.0 mi NNW 4.6 mph - N/A   Clear
10:15 AM 64.4 °F 57.2 °F 77% 29.98 in 10.0 mi North 6.9 mph - N/A   Mostly Cloudy
10:35 AM 64.4 °F 57.2 °F 77% 29.98 in 10.0 mi NNW 10.4 mph - N/A   Overcast
10:55 AM 64.4 °F 57.2 °F 77% 29.98 in 10.0 mi NNW 5.8 mph - N/A   Mostly Cloudy
11:15 AM 64.4 °F 55.4 °F 73% 29.98 in 10.0 mi NNW 5.8 mph - N/A   Mostly Cloudy
11:35 AM 64.4 °F 55.4 °F 73% 29.97 in 10.0 mi NNE 5.8 mph - N/A   Mostly Cloudy
11:55 AM 66.2 °F 55.4 °F 68% 29.97 in 10.0 mi ENE 9.2 mph - N/A   Overcast
12:15 PM 66.2 °F 57.2 °F 73% 29.96 in 10.0 mi NE 9.2 mph - N/A   Overcast
12:35 PM 66.2 °F 57.2 °F 73% 29.96 in 10.0 mi ENE 8.1 mph - N/A   Overcast
12:55 PM 68.0 °F 55.4 °F 64% 29.96 in 10.0 mi East 4.6 mph - N/A   Overcast
1:15 PM 68.0 °F 55.4 °F 64% 29.96 in 10.0 mi ESE 4.6 mph - N/A   Scattered Clouds
1:35 PM 68.0 °F 55.4 °F 64% 29.95 in 10.0 mi East 6.9 mph - N/A   Partly Cloudy
1:55 PM 68.0 °F 55.4 °F 64% 29.95 in 10.0 mi ESE 6.9 mph - N/A   Mostly Cloudy
2:15 PM 69.8 °F 55.4 °F 60% 29.95 in 10.0 mi ESE 6.9 mph - N/A   Overcast
2:35 PM 71.6 °F 55.4 °F 57% 29.94 in 10.0 mi SE 10.4 mph - N/A   Mostly Cloudy
2:55 PM 71.6 °F 55.4 °F 57% 29.94 in 10.0 mi SE 10.4 mph - N/A   Partly Cloudy
3:15 PM 69.8 °F 55.4 °F 60% 29.94 in 10.0 mi SE 8.1 mph - N/A   Mostly Cloudy
3:35 PM 71.6 °F 55.4 °F 57% 29.93 in 10.0 mi ESE 11.5 mph 16.1 mph N/A   Scattered Clouds
3:55 PM 71.6 °F 57.2 °F 60% 29.93 in 10.0 mi ESE 8.1 mph 18.4 mph N/A   Partly Cloudy
4:15 PM 71.6 °F 55.4 °F 57% 29.92 in 10.0 mi ESE 12.7 mph - N/A   Partly Cloudy
4:35 PM 71.6 °F 55.4 °F 57% 29.92 in 10.0 mi ESE 9.2 mph - N/A   Scattered Clouds
4:55 PM 69.8 °F 55.4 °F 60% 29.92 in 10.0 mi ESE 10.4 mph 16.1 mph N/A   Mostly Cloudy
5:15 PM 71.6 °F 55.4 °F 57% 29.92 in 10.0 mi ESE 10.4 mph - N/A   Partly Cloudy
5:35 PM 71.6 °F 55.4 °F 57% 29.91 in 10.0 mi ESE 12.7 mph - N/A   Scattered Clouds
5:55 PM 71.6 °F 55.4 °F 57% 29.90 in 10.0 mi East 12.7 mph - N/A   Scattered Clouds
6:15 PM 69.8 °F 55.4 °F 60% 29.90 in 10.0 mi ESE 12.7 mph 20.7 mph N/A   Scattered Clouds
6:35 PM 69.8 °F 57.2 °F 64% 29.89 in 10.0 mi ESE 17.3 mph - N/A   Mostly Cloudy
6:55 PM 68.0 °F 55.4 °F 64% 29.89 in 10.0 mi ESE 15.0 mph 23.0 mph N/A   Overcast
7:15 PM 68.0 °F 57.2 °F 68% 29.89 in 10.0 mi ESE 12.7 mph 21.9 mph N/A   Scattered Clouds
7:35 PM 68.0 °F 57.2 °F 68% 29.89 in 10.0 mi ESE 15.0 mph 18.4 mph N/A   Scattered Clouds
7:55 PM 66.2 °F 57.2 °F 73% 29.89 in 10.0 mi ESE 11.5 mph - N/A   Partly Cloudy
8:15 PM 66.2 °F 57.2 °F 73% 29.88 in 10.0 mi East 12.7 mph - N/A   Clear
8:35 PM 64.4 °F 57.2 °F 77% 29.87 in 10.0 mi East 13.8 mph - N/A   Clear
8:55 PM 64.4 °F 59.0 °F 83% 29.87 in 10.0 mi ESE 11.5 mph 18.4 mph N/A   Clear
9:15 PM 62.6 °F 59.0 °F 88% 29.87 in 10.0 mi ESE 15.0 mph - N/A   Clear
9:35 PM 62.6 °F 59.0 °F 88% 29.87 in 10.0 mi ESE 17.3 mph 24.2 mph N/A   Partly Cloudy
9:55 PM 62.6 °F 60.8 °F 94% 29.87 in 10.0 mi ESE 16.1 mph 23.0 mph N/A   Mostly Cloudy
10:15 PM 62.6 °F 60.8 °F 94% 29.87 in 10.0 mi ESE 11.5 mph - N/A   Scattered Clouds
10:35 PM 62.6 °F 60.8 °F 94% 29.87 in 10.0 mi SE 16.1 mph 20.7 mph N/A   Scattered Clouds
10:55 PM 62.6 °F 60.8 °F 94% 29.87 in 10.0 mi SE 19.6 mph 26.5 mph N/A   Mostly Cloudy
11:15 PM 62.6 °F 62.6 °F 100% 29.86 in 10.0 mi SE 19.6 mph 27.6 mph N/A   Overcast
11:35 PM 62.6 °F 60.8 °F 94% 29.85 in 10.0 mi SE 16.1 mph 25.3 mph N/A   Mostly Cloudy
11:55 PM 62.6 °F 60.8 °F 94% 29.86 in 10.0 mi SE 18.4 mph 28.8 mph N/A   Mostly Cloudy